Home > Weather > Alfeld (Leine) > Past weeks

Flag for Germany Past Weather in Alfeld (Leine), Lower Saxony, Germany — Yesterday and Last 2 Weeks

Now
84 °F

Passing clouds.


Feels Like: 85 °F
Forecast: 58 / 74 °F
Wind: 7 mph from West

Location: Braunschweig Wolfsburg

Current Time: Jul 25, 2016 at 4:09:46 PM

Latest Report: Jul 25, 2016 at 3:20 PM


Visibility: N/A

Pressure: 30.04 "Hg

Humidity: 48%

Dew Point: 63 °F

Location of Alfeld (Leine)Location

Past Weather in Alfeld (Leine) — Graph

°F

Alfeld (Leine) Temperature Yesterday

Maximum temperature yesterday: 82 °F (at 2:50 PM)
Minimum temperature yesterday: 68 °F (at 7:50 AM)
Average temperature yesterday: 77 °F

High & Low Weather Summary for the Past Weeks

 TemperatureHumidityPressure
High90 °F (Jul 20, 6:20 PM)94% (Jul 13, 6:50 AM)30.24 "Hg (Jul 13, 6:50 AM)
Low55 °F (Jul 14, 6:50 AM)31% (Jul 20, 3:50 PM)29.77 "Hg (Jul 11, 6:50 AM)
Average72 °F60%30.01 "Hg
* Reported Jul 11 6:50 AM — Jul 25 2:50 PM, Alfeld (Leine), Weather by CustomWeather, © 2016

Note: Actual official high and low records may vary slightly from our data, if they occured in-between our weather recording intervals... More about our weather records

Advertising

Alfeld (Leine) Weather History for the Previous 24 Hours

Scroll right to see more
 ConditionsComfort  
Time TempWeatherWind HumidityBarometerVisibility
2:50 PM
Mon, Jul 25
82 °FPassing clouds.6 mph48%30.04 "HgN/A
2:20 PM82 °FPassing clouds.7 mph51%30.04 "HgN/A
1:50 PM82 °FPassing clouds.6 mph51%30.04 "HgN/A
1:20 PM82 °FPartly sunny.6 mph48%30.04 "HgN/A
12:50 PM82 °FPassing clouds.6 mph51%30.04 "HgN/A
12:20 PM82 °FPassing clouds.5 mph48%30.04 "HgN/A
11:50 AM81 °FPassing clouds.6 mph54%30.04 "HgN/A
11:20 AM82 °FSunny.3 mph42%30.04 "Hg10 mi
10:50 AM79 °FSunny.3 mph61%30.07 "Hg10 mi
10:20 AM79 °FSunny.3 mph61%30.07 "Hg10 mi
9:20 AM73 °FPassing clouds.5 mph74%30.07 "HgN/A
8:50 AM72 °FSunny.No wind78%30.04 "Hg10 mi
8:20 AM72 °FSunny.3 mph78%30.04 "Hg10 mi
7:50 AM68 °FSunny.5 mph88%30.04 "Hg10 mi
7:20 AM66 °FSunny.No wind94%30.04 "Hg10 mi
6:50 AM64 °FSunny.No wind94%30.04 "Hg10 mi
6:20 AM64 °FClear.1 mph94%30.04 "Hg10 mi
5:20 AM63 °FClear.No wind94%30.04 "Hg10 mi
4:50 AM64 °FClear.No wind94%30.04 "Hg10 mi
7:20 PM
Sun, Jul 24
79 °FSunny.7 mph58%30.07 "Hg10 mi
5:50 PM82 °FSunny.3 mph48%30.07 "Hg10 mi
Weather by CustomWeather, © 2016

See weather overviewHow to use our weather pages